Weather History for Key West NAF, FL

Change the Weather History Date:

Thursday, February 14, 2013

  Actual Average Record
Temperature  
Mean Temperature 74 °F -  
Max Temperature 82 °F 75 °F 83 °F (1965)
Min Temperature 66 °F 65 °F 47 °F (1958)
Cooling Degree Days 9    
Growing Degree Days 24 (Base 50)    
Moisture  
Dew Point 70 °F    
Average Humidity 84    
Maximum Humidity 94    
Minimum Humidity 71    
Precipitation  
Precipitation 0.50 in - - ()
Sea Level Pressure  
Sea Level Pressure 29.96 in    
Wind  
Wind Speed 11 mph (South)    
Max Wind Speed 28 mph    
Max Gust Speed 39 mph    
Visibility 9 miles    
Events Rain    
Averages and records for this station are not official NWS values.
T = Trace of Precipitation, MM = Missing Value Source: NWS Daily Summary

Daily Weather History Graph

Daily Weather History Graph

Search for Another Location

Airport:

Trip Planner

Search our weather history database for the weather conditions in past years. The results will help you decide how hot, cold, wet, or windy it might be!

Date:

Astronomy

Feb. 14, 2013 Rise Set
Actual Time 7:01 AM EST 6:21 PM EST
Civil Twilight 6:37 AM EST 6:44 PM EST
Nautical Twilight 6:11 AM EST 7:11 PM EST
Astronomical Twilight 5:44 AM EST 7:37 PM EST
Moon 9:38 AM EST (2/14) 10:43 PM EST (2/14)
Length of Visible Light 12h 06m
Length of Day
11h 19m
Waxing Crescent, 21% of the Moon is Illuminated
Feb 14
Waxing Crescent
Feb 17
First Quarter
Feb 25
Full
Mar 4
Last Quarter
Mar 11
New

Hourly Weather History & Observations

Time (EST) Temp. Heat Index Dew Point Humidity Pressure Visibility Wind Dir Wind Speed Gust Speed Precip Events Conditions
12:53 AM 75.9 °F - 72.0 °F 87% 29.97 in 10.0 mi SSE 6.9 mph - N/A   Clear
1:53 AM 75.9 °F - 72.0 °F 87% 29.96 in 10.0 mi South 6.9 mph - N/A   Clear
2:53 AM 75.9 °F - 71.1 °F 85% 29.93 in 10.0 mi South 8.1 mph - N/A   Clear
3:53 AM 75.9 °F - 72.0 °F 87% 29.93 in 10.0 mi South 8.1 mph - N/A   Partly Cloudy
4:53 AM 77.0 °F - 71.1 °F 82% 29.92 in 10.0 mi South 8.1 mph - N/A   Overcast
5:53 AM 77.0 °F - 71.1 °F 82% 29.94 in 10.0 mi SSW 6.9 mph - N/A   Mostly Cloudy
6:53 AM 77.0 °F - 72.0 °F 84% 29.96 in 10.0 mi SSW 6.9 mph - N/A   Mostly Cloudy
7:53 AM 78.1 °F - 72.0 °F 81% 29.97 in 10.0 mi SSW 9.2 mph - N/A   Mostly Cloudy
8:53 AM 80.1 °F 84.2 °F 73.0 °F 79% 29.98 in 10.0 mi SSW 10.4 mph - N/A   Scattered Clouds
9:53 AM 81.0 °F 85.8 °F 73.0 °F 77% 29.99 in 10.0 mi South 11.5 mph - N/A   Scattered Clouds
10:53 AM 82.0 °F 86.7 °F 72.0 °F 71% 29.99 in 10.0 mi South 12.7 mph - N/A   Scattered Clouds
11:53 AM 82.0 °F 87.4 °F 73.0 °F 74% 29.99 in 10.0 mi South 13.8 mph 20.7 mph N/A   Mostly Cloudy
12:53 PM 82.0 °F 86.7 °F 72.0 °F 71% 29.96 in 10.0 mi South 15.0 mph - N/A   Mostly Cloudy
1:53 PM 81.0 °F 85.2 °F 72.0 °F 74% 29.93 in 10.0 mi South 13.8 mph - N/A   Mostly Cloudy
2:53 PM 81.0 °F 85.8 °F 73.0 °F 77% 29.92 in 10.0 mi South 12.7 mph - N/A   Mostly Cloudy
3:53 PM 80.1 °F 84.2 °F 73.0 °F 79% 29.92 in 10.0 mi South 9.2 mph - N/A   Mostly Cloudy
4:53 PM 80.1 °F 84.2 °F 73.0 °F 79% 29.91 in 10.0 mi South 8.1 mph - N/A   Mostly Cloudy
5:53 PM 79.0 °F - 73.0 °F 82% 29.92 in 10.0 mi SSW 8.1 mph - N/A   Mostly Cloudy
6:53 PM 78.1 °F - 73.0 °F 84% 29.92 in 6.0 mi SSW 4.6 mph - 0.05 in Rain Light Rain
7:24 PM 77.0 °F - 73.4 °F 89% 29.92 in 10.0 mi South 4.6 mph - 0.00 in   Mostly Cloudy
7:53 PM 72.0 °F - 69.1 °F 91% 29.96 in 10.0 mi NNW 18.4 mph 29.9 mph 0.00 in   Overcast
8:03 PM 69.8 °F - 66.2 °F 88% 29.97 in 2.0 mi NNW 27.6 mph 39.1 mph 0.09 in   Overcast
8:17 PM 69.8 °F - 66.2 °F 88% 29.97 in 4.0 mi North 19.6 mph 29.9 mph 0.21 in Rain Light Rain
8:53 PM 69.1 °F - 66.9 °F 93% 29.98 in 4.0 mi North 21.9 mph - 0.23 in Rain Light Rain
9:10 PM 68.0 °F - 64.4 °F 88% 29.99 in 10.0 mi North 20.7 mph 28.8 mph 0.00 in   Overcast
9:29 PM 68.0 °F - 64.4 °F 88% 29.99 in 4.0 mi North 20.7 mph 31.1 mph 0.02 in Rain Light Rain
9:53 PM 68.0 °F - 64.0 °F 87% 29.99 in 10.0 mi North 21.9 mph 27.6 mph 0.02 in Rain Light Rain
10:01 PM 68.0 °F - 64.4 °F 88% 30.00 in 10.0 mi North 19.6 mph 27.6 mph 0.00 in Rain Light Rain
10:53 PM 66.9 °F - 64.0 °F 90% 30.00 in 9.0 mi NNE 17.3 mph 26.5 mph 0.19 in Rain Light Rain
11:02 PM 66.2 °F - 64.4 °F 94% 30.00 in 9.0 mi NNE 18.4 mph 25.3 mph 0.00 in Rain Light Rain
11:27 PM 66.2 °F - 64.4 °F 94% 29.99 in 10.0 mi NE 16.1 mph 23.0 mph 0.01 in Rain Light Rain
11:36 PM 66.2 °F - 64.4 °F 94% 30.00 in 10.0 mi NE 13.8 mph 23.0 mph 0.01 in Rain Light Rain
11:53 PM 68.0 °F - 66.0 °F 93% 29.99 in 10.0 mi NNE 12.7 mph 23.0 mph 0.01 in Rain Light Rain